Time,TemperatureF,DewpointF,PressureIn,WindDirection,WindDirectionDegrees,WindSpeedMPH,WindSpeedGustMPH,Humidity,HourlyPrecipIn,Conditions,Clouds,dailyrainin,SoftwareType,DateUTC
2013-10-04 00:00:00,54.2,51.0,29.96,WSW,248,0.0,0.0,89,0.00,,---,0.00,VWS V14.01,2013-10-04 04:00:00,
2013-10-04 00:31:00,54.1,50.9,29.97,WSW,247,0.0,0.0,89,0.00,,---,0.00,VWS V14.01,2013-10-04 04:31:00,
2013-10-04 00:33:00,53.5,50.3,29.97,WSW,247,0.0,0.0,89,0.00,,---,0.00,VWS V14.01,2013-10-04 04:33:00,
2013-10-04 00:34:00,53.5,50.3,29.97,WSW,246,0.0,0.0,89,0.00,,---,0.00,VWS V14.01,2013-10-04 04:34:00,
2013-10-04 00:35:00,53.5,50.3,29.97,WSW,246,0.0,0.0,89,0.00,,---,0.00,VWS V14.01,2013-10-04 04:35:00,
2013-10-04 00:39:00,53.5,50.3,29.97,WSW,246,0.0,0.0,89,0.00,,---,0.00,VWS V14.01,2013-10-04 04:39:00,
2013-10-04 00:43:00,53.2,50.0,29.97,WSW,246,0.0,0.0,89,0.00,,---,0.00,VWS V14.01,2013-10-04 04:43:00,
2013-10-04 00:45:00,53.2,50.0,29.97,WSW,246,0.0,0.0,89,0.00,,---,0.00,VWS V14.01,2013-10-04 04:45:00,
2013-10-04 00:46:00,53.2,50.0,29.97,WSW,246,0.0,0.0,89,0.00,,---,0.00,VWS V14.01,2013-10-04 04:46:00,
2013-10-04 00:47:00,53.2,50.0,29.97,WSW,246,0.0,0.0,89,0.00,,---,0.00,VWS V14.01,2013-10-04 04:47:00,
2013-10-04 00:53:00,53.3,53.3,29.97,WSW,244,0.0,0.0,100,0.00,,---,0.00,VWS V14.01,2013-10-04 04:53:00,
2013-10-04 00:55:00,53.3,53.3,29.97,WSW,244,0.0,0.0,100,0.00,,---,0.00,VWS V14.01,2013-10-04 04:55:00,
2013-10-04 00:58:00,53.3,53.3,29.97,WSW,243,0.0,0.0,100,0.00,,---,0.00,VWS V14.01,2013-10-04 04:58:00,
2013-10-04 01:00:00,53.3,53.3,29.97,WSW,243,0.0,0.0,100,0.00,,---,-99.99,VWS V14.01,2013-10-04 05:00:00,
2013-10-04 01:03:00,53.3,53.3,29.97,WSW,243,0.0,0.0,100,0.00,,---,0.00,VWS V14.01,2013-10-04 05:03:00,
2013-10-04 01:05:00,53.3,53.3,29.97,WSW,243,0.0,0.0,100,0.00,,---,0.00,VWS V14.01,2013-10-04 05:05:00,
2013-10-04 01:07:00,53.3,53.3,29.97,WSW,243,0.0,0.0,100,0.00,,---,0.00,VWS V14.01,2013-10-04 05:07:00,
2013-10-04 01:10:00,53.2,53.2,29.97,WSW,243,0.0,0.0,100,0.00,,---,0.00,VWS V14.01,2013-10-04 05:10:00,
2013-10-04 01:14:00,53.2,52.9,29.97,WSW,241,0.0,0.0,99,0.00,,---,0.00,VWS V14.01,2013-10-04 05:14:00,
2013-10-04 01:15:00,53.2,52.9,29.97,WSW,241,0.0,0.0,99,0.00,,---,0.00,VWS V14.01,2013-10-04 05:15:00,
2013-10-04 01:16:00,53.1,52.8,29.97,WSW,241,0.0,0.0,99,0.00,,---,0.00,VWS V14.01,2013-10-04 05:16:00,
2013-10-04 01:19:00,53.1,52.8,29.97,WSW,241,0.0,0.0,99,0.00,,---,0.00,VWS V14.01,2013-10-04 05:19:00,
2013-10-04 01:24:00,53.1,52.8,29.97,WSW,240,0.0,0.0,99,0.00,,---,0.00,VWS V14.01,2013-10-04 05:24:00,
2013-10-04 01:26:00,53.1,52.8,29.97,WSW,240,0.0,0.0,99,0.00,,---,0.00,VWS V14.01,2013-10-04 05:26:00,
2013-10-04 01:31:00,52.6,52.3,29.98,WSW,240,0.0,0.0,99,0.00,,---,0.00,VWS V14.01,2013-10-04 05:31:00,
2013-10-04 01:36:00,52.6,52.3,29.98,WSW,239,0.0,0.0,99,0.00,,---,0.00,VWS V14.01,2013-10-04 05:36:00,
2013-10-04 01:41:00,52.6,52.3,29.98,SW,236,0.0,0.0,99,0.00,,---,0.00,VWS V14.01,2013-10-04 05:41:00,
2013-10-04 01:47:00,52.6,52.3,29.98,SW,234,0.0,0.0,99,0.00,,---,0.00,VWS V14.01,2013-10-04 05:47:00,
2013-10-04 01:52:00,52.9,52.6,29.98,SW,234,0.0,0.0,99,0.00,,---,0.00,VWS V14.01,2013-10-04 05:52:00,
2013-10-04 01:57:00,52.9,52.9,29.98,SW,233,0.0,0.0,100,0.00,,---,0.00,VWS V14.01,2013-10-04 05:57:00,
2013-10-04 02:00:00,52.5,52.5,29.97,SW,233,0.0,0.0,100,0.00,,---,-99.99,VWS V14.01,2013-10-04 06:00:00,
2013-10-04 02:02:00,52.5,52.5,29.97,SW,233,0.0,0.0,100,0.00,,---,0.00,VWS V14.01,2013-10-04 06:02:00,
2013-10-04 02:07:00,52.3,52.3,29.97,SW,232,0.0,0.0,100,0.00,,---,0.00,VWS V14.01,2013-10-04 06:07:00,
2013-10-04 02:12:00,52.3,52.3,29.97,SW,227,0.0,0.0,100,0.00,,---,0.00,VWS V14.01,2013-10-04 06:12:00,
2013-10-04 02:17:00,52.8,52.8,29.97,SSW,192,0.0,0.0,100,0.00,,---,0.00,VWS V14.01,2013-10-04 06:17:00,
2013-10-04 02:22:00,52.8,52.8,29.97,SSW,195,0.0,0.0,100,0.00,,---,0.00,VWS V14.01,2013-10-04 06:22:00,
2013-10-04 02:27:00,52.8,52.8,29.97,SSW,195,0.0,0.0,100,0.00,,---,0.00,VWS V14.01,2013-10-04 06:27:00,
2013-10-04 02:32:00,52.9,52.9,29.97,SSW,195,0.0,0.0,100,0.00,,---,0.00,VWS V14.01,2013-10-04 06:32:00,
2013-10-04 02:37:00,52.8,52.8,29.97,SSW,200,0.0,0.0,100,0.00,,---,0.00,VWS V14.01,2013-10-04 06:37:00,
2013-10-04 02:42:00,52.8,52.8,29.97,SSW,200,0.0,0.0,100,0.00,,---,0.00,VWS V14.01,2013-10-04 06:42:00,
2013-10-04 02:47:00,52.8,52.8,29.97,SSW,202,0.0,0.0,100,0.00,,---,0.00,VWS V14.01,2013-10-04 06:47:00,
2013-10-04 02:52:00,52.8,52.8,29.97,SSW,202,0.0,0.0,100,0.00,,---,0.00,VWS V14.01,2013-10-04 06:52:00,
2013-10-04 02:57:00,52.8,52.8,29.97,SSW,205,0.0,0.0,100,0.00,,---,0.00,VWS V14.01,2013-10-04 06:57:00,
2013-10-04 03:00:00,52.8,52.8,29.97,SSW,205,0.0,0.0,100,0.00,,---,-99.99,VWS V14.01,2013-10-04 07:00:00,
2013-10-04 03:02:00,52.8,52.8,29.97,SSW,205,0.0,0.0,100,0.00,,---,0.00,VWS V14.01,2013-10-04 07:02:00,
2013-10-04 03:07:00,52.8,52.8,29.97,SSW,205,0.0,0.0,100,0.00,,---,0.00,VWS V14.01,2013-10-04 07:07:00,
2013-10-04 03:12:00,52.6,52.6,29.97,SSW,203,0.0,0.0,100,0.00,,---,0.00,VWS V14.01,2013-10-04 07:12:00,
2013-10-04 03:17:00,52.6,52.6,29.96,SSW,200,0.0,0.0,100,0.00,,---,0.00,VWS V14.01,2013-10-04 07:17:00,
2013-10-04 03:22:00,52.5,52.5,29.96,SSW,203,0.0,0.0,100,0.00,,---,0.00,VWS V14.01,2013-10-04 07:22:00,
2013-10-04 03:28:00,52.3,52.3,29.96,SSW,199,0.0,0.0,100,0.00,,---,0.00,VWS V14.01,2013-10-04 07:28:00,
2013-10-04 03:33:00,52.3,52.3,29.96,SSW,200,0.0,0.0,100,0.00,,---,0.00,VWS V14.01,2013-10-04 07:33:00,
2013-10-04 03:38:00,52.2,52.2,29.96,SSW,206,0.0,0.0,100,0.00,,---,0.00,VWS V14.01,2013-10-04 07:38:00,
2013-10-04 03:43:00,52.2,52.2,29.96,SSW,209,0.0,0.0,100,0.00,,---,0.00,VWS V14.01,2013-10-04 07:43:00,
2013-10-04 03:48:00,52.0,52.0,29.96,SSW,206,0.0,0.0,100,0.00,,---,0.00,VWS V14.01,2013-10-04 07:48:00,
2013-10-04 03:53:00,52.0,52.0,29.96,SSW,209,0.0,0.0,100,0.00,,---,0.00,VWS V14.01,2013-10-04 07:53:00,
2013-10-04 03:58:00,52.2,52.2,29.96,SSW,210,0.0,0.0,100,0.00,,---,0.00,VWS V14.01,2013-10-04 07:58:00,
2013-10-04 04:00:00,52.2,52.2,29.97,SSW,210,0.0,0.0,100,0.00,,---,-99.99,VWS V14.01,2013-10-04 08:00:00,
2013-10-04 04:03:00,52.0,52.0,29.97,SSW,209,0.0,0.0,100,0.00,,---,0.00,VWS V14.01,2013-10-04 08:03:00,
2013-10-04 04:08:00,52.0,52.0,29.97,SSW,209,0.0,0.0,100,0.00,,---,0.00,VWS V14.01,2013-10-04 08:08:00,
2013-10-04 04:13:00,51.9,51.9,29.97,SSW,209,0.0,0.0,100,0.00,,---,0.00,VWS V14.01,2013-10-04 08:13:00,
2013-10-04 04:18:00,52.0,52.0,29.97,SSW,210,0.0,0.0,100,0.00,,---,0.00,VWS V14.01,2013-10-04 08:18:00,
2013-10-04 04:23:00,52.0,52.0,29.97,SSW,209,0.0,0.0,100,0.00,,---,0.00,VWS V14.01,2013-10-04 08:23:00,
2013-10-04 04:28:00,52.0,52.0,29.97,SSW,210,0.0,0.0,100,0.00,,---,0.00,VWS V14.01,2013-10-04 08:28:00,
2013-10-04 04:34:00,52.0,52.0,29.97,SSW,210,0.0,0.0,100,0.00,,---,0.00,VWS V14.01,2013-10-04 08:34:00,
2013-10-04 04:39:00,52.0,52.0,29.97,SSW,212,0.0,0.0,100,0.00,,---,0.00,VWS V14.01,2013-10-04 08:39:00,
2013-10-04 04:43:00,52.2,52.2,29.97,SSW,210,0.0,0.0,100,0.00,,---,0.00,VWS V14.01,2013-10-04 08:43:00,
2013-10-04 04:49:00,52.2,52.2,29.97,SSW,212,0.0,0.0,100,0.00,,---,0.00,VWS V14.01,2013-10-04 08:49:00,
2013-10-04 04:54:00,52.6,52.6,29.97,SSW,212,0.0,0.0,100,0.00,,---,0.00,VWS V14.01,2013-10-04 08:54:00,
2013-10-04 04:59:00,52.6,52.6,29.97,SSW,212,0.0,0.0,100,0.00,,---,0.00,VWS V14.01,2013-10-04 08:59:00,
2013-10-04 05:00:00,52.5,52.5,29.97,SSW,212,0.0,0.0,100,0.00,,---,-99.99,VWS V14.01,2013-10-04 09:00:00,
2013-10-04 05:04:00,52.5,52.5,29.97,SSW,212,0.0,0.0,100,0.00,,---,0.00,VWS V14.01,2013-10-04 09:04:00,
2013-10-04 05:09:00,52.3,52.3,29.97,SSW,212,0.0,0.0,100,0.00,,---,0.00,VWS V14.01,2013-10-04 09:09:00,
2013-10-04 05:14:00,52.5,52.5,29.97,SSW,209,0.0,0.0,100,0.00,,---,0.00,VWS V14.01,2013-10-04 09:14:00,
2013-10-04 05:19:00,52.3,52.3,29.97,SSW,210,0.0,0.0,100,0.00,,---,0.00,VWS V14.01,2013-10-04 09:19:00,
2013-10-04 05:24:00,52.0,52.0,29.97,SSW,209,0.0,0.0,100,0.00,,---,0.00,VWS V14.01,2013-10-04 09:24:00,
2013-10-04 05:29:00,51.9,51.9,29.97,SSW,210,0.0,0.0,100,0.00,,---,0.00,VWS V14.01,2013-10-04 09:29:00,
2013-10-04 05:34:00,51.9,51.9,29.97,SSW,209,0.0,0.0,100,0.00,,---,0.00,VWS V14.01,2013-10-04 09:34:00,
2013-10-04 05:39:00,51.9,51.9,29.97,SSW,209,0.0,0.0,100,0.00,,---,0.00,VWS V14.01,2013-10-04 09:39:00,
2013-10-04 05:44:00,52.0,52.0,29.97,SSW,208,0.0,0.0,100,0.00,,---,0.00,VWS V14.01,2013-10-04 09:44:00,
2013-10-04 05:50:00,51.7,51.7,29.97,SSW,210,0.0,0.0,100,0.00,,---,0.00,VWS V14.01,2013-10-04 09:50:00,
2013-10-04 05:55:00,51.9,51.9,29.97,SSW,212,0.0,0.0,100,0.00,,---,0.00,VWS V14.01,2013-10-04 09:55:00,
2013-10-04 06:00:00,51.9,51.9,29.98,SSW,210,0.0,0.0,100,0.00,,---,0.00,VWS V14.01,2013-10-04 10:00:00,
2013-10-04 06:05:00,51.9,51.9,29.98,SSW,210,0.0,0.0,100,0.00,,---,0.00,VWS V14.01,2013-10-04 10:05:00,
2013-10-04 06:10:00,51.9,51.9,29.98,SSW,210,0.0,0.0,100,0.00,,---,0.00,VWS V14.01,2013-10-04 10:10:00,
2013-10-04 06:15:00,51.9,51.9,29.98,SSW,210,0.0,0.0,100,0.00,,---,0.00,VWS V14.01,2013-10-04 10:15:00,
2013-10-04 06:20:00,51.9,51.9,29.98,SSW,209,0.0,0.0,100,0.00,,---,0.00,VWS V14.01,2013-10-04 10:20:00,
2013-10-04 06:25:00,51.9,51.9,29.98,SSW,210,0.0,0.0,100,0.00,,---,0.00,VWS V14.01,2013-10-04 10:25:00,
2013-10-04 06:30:00,52.0,52.0,29.98,SSW,209,0.0,0.0,100,0.00,,---,0.00,VWS V14.01,2013-10-04 10:30:00,
2013-10-04 06:35:00,52.2,52.2,29.98,SSW,210,0.0,0.0,100,0.00,,---,0.00,VWS V14.01,2013-10-04 10:35:00,
2013-10-04 06:40:00,52.5,52.5,29.98,SSW,208,0.0,0.0,100,0.00,,---,0.00,VWS V14.01,2013-10-04 10:40:00,
2013-10-04 06:45:00,52.6,52.6,29.99,WSW,253,0.0,0.0,100,0.00,,---,0.00,VWS V14.01,2013-10-04 10:45:00,
2013-10-04 06:50:00,52.8,52.8,29.99,WSW,253,0.0,0.0,100,0.00,,---,0.00,VWS V14.01,2013-10-04 10:50:00,
2013-10-04 06:55:00,52.8,52.8,29.99,WSW,253,0.0,0.0,100,0.00,,---,0.00,VWS V14.01,2013-10-04 10:55:00,
2013-10-04 07:00:00,52.8,52.8,29.99,WSW,253,0.0,0.0,100,0.00,,---,-99.99,VWS V14.01,2013-10-04 11:00:00,
2013-10-04 07:01:00,53.1,53.1,29.99,WSW,253,0.0,0.0,100,0.00,,---,0.00,VWS V14.01,2013-10-04 11:01:00,
2013-10-04 07:06:00,53.1,53.1,29.99,WSW,253,0.0,0.0,100,0.00,,---,0.00,VWS V14.01,2013-10-04 11:06:00,
2013-10-04 07:11:00,53.3,53.3,29.99,WSW,253,0.0,0.0,100,0.00,,---,0.00,VWS V14.01,2013-10-04 11:11:00,
2013-10-04 07:16:00,53.2,53.2,29.99,WSW,253,0.0,0.0,100,0.00,,---,0.00,VWS V14.01,2013-10-04 11:16:00,
2013-10-04 07:21:00,53.2,53.2,29.99,WSW,253,0.0,0.0,100,0.00,,---,0.00,VWS V14.01,2013-10-04 11:21:00,
2013-10-04 07:26:00,53.3,53.3,29.99,WSW,253,0.0,0.0,100,0.00,,---,0.00,VWS V14.01,2013-10-04 11:26:00,
2013-10-04 07:31:00,53.6,53.6,30.00,WSW,253,0.0,0.0,100,0.00,,---,0.00,VWS V14.01,2013-10-04 11:31:00,
2013-10-04 07:36:00,53.8,53.8,30.00,WSW,253,0.0,0.0,100,0.00,,---,0.00,VWS V14.01,2013-10-04 11:36:00,
2013-10-04 07:41:00,53.9,53.9,30.00,WSW,253,0.0,0.0,100,0.00,,---,0.00,VWS V14.01,2013-10-04 11:41:00,
2013-10-04 07:46:00,53.9,53.9,30.00,WSW,253,0.0,0.0,100,0.00,,---,0.00,VWS V14.01,2013-10-04 11:46:00,
2013-10-04 07:51:00,53.9,53.9,30.00,WSW,253,0.0,0.0,100,0.00,,---,0.00,VWS V14.01,2013-10-04 11:51:00,
2013-10-04 07:56:00,53.9,53.9,30.00,WSW,253,0.0,0.0,100,0.00,,---,0.00,VWS V14.01,2013-10-04 11:56:00,
2013-10-04 08:00:00,54.4,54.4,30.01,WSW,253,0.0,0.0,100,0.00,,---,-99.99,VWS V14.01,2013-10-04 12:00:00,
2013-10-04 08:01:00,54.4,54.4,30.01,WSW,253,0.0,0.0,100,0.00,,---,0.00,VWS V14.01,2013-10-04 12:01:00,
2013-10-04 08:06:00,54.4,54.4,30.01,WSW,253,0.0,0.0,100,0.00,,---,0.00,VWS V14.01,2013-10-04 12:06:00,
2013-10-04 08:12:00,54.4,54.4,30.01,WSW,253,0.0,0.0,100,0.00,,---,0.00,VWS V14.01,2013-10-04 12:12:00,
2013-10-04 08:17:00,55.6,55.6,30.01,WSW,253,0.0,0.0,100,0.00,,---,0.00,VWS V14.01,2013-10-04 12:17:00,
2013-10-04 08:22:00,55.9,55.9,30.01,WSW,253,0.0,0.0,100,0.00,,---,0.00,VWS V14.01,2013-10-04 12:22:00,
2013-10-04 08:27:00,55.9,55.9,30.01,WSW,251,0.0,0.0,100,0.00,,---,0.00,VWS V14.01,2013-10-04 12:27:00,
2013-10-04 08:32:00,55.9,55.9,30.01,WNW,287,0.0,0.0,100,0.00,,---,0.00,VWS V14.01,2013-10-04 12:32:00,
2013-10-04 08:37:00,57.5,57.5,30.01,WNW,292,0.0,0.0,100,0.00,,---,0.00,VWS V14.01,2013-10-04 12:37:00,
2013-10-04 08:42:00,58.4,58.4,30.01,WNW,292,0.0,0.0,100,0.00,,---,0.00,VWS V14.01,2013-10-04 12:42:00,
2013-10-04 08:47:00,58.4,58.4,30.01,WNW,292,0.0,0.0,100,0.00,,---,0.00,VWS V14.01,2013-10-04 12:47:00,
2013-10-04 08:52:00,59.2,59.2,30.01,WNW,292,0.0,0.0,100,0.00,,---,0.00,VWS V14.01,2013-10-04 12:52:00,
2013-10-04 08:57:00,59.2,59.2,30.01,WNW,292,0.0,0.0,100,0.00,,---,0.00,VWS V14.01,2013-10-04 12:57:00,
2013-10-04 09:00:00,60.2,60.2,30.01,WNW,292,0.0,0.0,100,0.00,,---,-99.99,VWS V14.01,2013-10-04 13:00:00,
2013-10-04 09:02:00,60.2,60.2,30.01,WNW,292,0.0,0.0,100,0.00,,---,0.00,VWS V14.01,2013-10-04 13:02:00,
2013-10-04 09:07:00,60.1,60.1,30.01,WNW,292,0.0,0.0,100,0.00,,---,0.00,VWS V14.01,2013-10-04 13:07:00,
2013-10-04 09:12:00,60.1,60.1,30.01,WNW,292,0.0,0.0,100,0.00,,---,0.00,VWS V14.01,2013-10-04 13:12:00,
2013-10-04 09:17:00,60.2,60.2,30.01,WNW,288,0.0,0.0,100,0.00,,---,0.00,VWS V14.01,2013-10-04 13:17:00,
2013-10-04 09:22:00,60.9,60.9,30.01,WNW,294,0.0,0.0,100,0.00,,---,0.00,VWS V14.01,2013-10-04 13:22:00,
2013-10-04 09:27:00,60.9,60.9,30.01,WNW,294,0.0,0.0,100,0.00,,---,0.00,VWS V14.01,2013-10-04 13:27:00,
2013-10-04 09:32:00,61.3,61.3,30.01,North,357,0.0,0.0,100,0.00,,---,0.00,VWS V14.01,2013-10-04 13:32:00,
2013-10-04 09:37:00,62.3,62.3,30.01,North,359,0.0,0.0,100,0.00,,---,0.00,VWS V14.01,2013-10-04 13:37:00,
2013-10-04 09:42:00,62.3,62.3,30.01,NNE,16,0.0,0.0,100,0.00,,---,0.00,VWS V14.01,2013-10-04 13:42:00,
2013-10-04 09:47:00,63.1,63.1,30.01,North,359,0.0,1.0,100,0.00,,---,0.00,VWS V14.01,2013-10-04 13:47:00,
2013-10-04 09:53:00,63.2,63.2,30.01,NNE,13,0.0,1.0,100,0.00,,---,0.00,VWS V14.01,2013-10-04 13:53:00,
2013-10-04 09:58:00,63.2,63.2,30.01,North,0,0.0,1.0,100,0.00,,---,0.00,VWS V14.01,2013-10-04 13:58:00,
2013-10-04 10:00:00,63.2,63.2,30.01,North,356,1.0,1.0,100,0.00,,---,-99.99,VWS V14.01,2013-10-04 14:00:00,
2013-10-04 10:03:00,63.9,51.9,30.01,North,357,0.0,1.0,65,0.00,,---,0.00,VWS V14.01,2013-10-04 14:03:00,
2013-10-04 10:08:00,64.7,53.5,30.01,North,357,0.0,1.0,67,0.00,,---,0.00,VWS V14.01,2013-10-04 14:08:00,
2013-10-04 10:13:00,65.0,53.4,30.01,North,356,0.0,1.0,66,0.00,,---,0.00,VWS V14.01,2013-10-04 14:13:00,
2013-10-04 10:18:00,65.5,53.8,30.01,North,357,0.0,1.0,66,0.00,,---,0.00,VWS V14.01,2013-10-04 14:18:00,
2013-10-04 10:23:00,65.5,53.8,30.01,NNW,330,0.0,1.0,66,0.00,,---,0.00,VWS V14.01,2013-10-04 14:23:00,
2013-10-04 10:28:00,65.5,52.6,30.01,NNW,330,0.0,1.0,63,0.00,,---,0.00,VWS V14.01,2013-10-04 14:28:00,
2013-10-04 10:33:00,65.5,52.6,30.01,NNW,332,0.0,1.0,63,0.00,,---,0.00,VWS V14.01,2013-10-04 14:33:00,
2013-10-04 10:38:00,66.0,53.1,30.01,NNW,332,0.0,1.0,63,0.00,,---,0.00,VWS V14.01,2013-10-04 14:38:00,
2013-10-04 10:43:00,66.0,53.1,30.01,NNW,332,0.0,1.0,63,0.00,,---,0.00,VWS V14.01,2013-10-04 14:43:00,
2013-10-04 10:49:00,66.0,53.9,30.01,NNW,332,0.0,1.0,65,0.00,,---,0.00,VWS V14.01,2013-10-04 14:49:00,
2013-10-04 10:54:00,66.0,53.9,30.01,NNW,332,0.0,1.0,65,0.00,,---,0.00,VWS V14.01,2013-10-04 14:54:00,
2013-10-04 10:59:00,66.6,54.5,30.00,NNW,342,0.0,1.0,65,0.00,,---,0.00,VWS V14.01,2013-10-04 14:59:00,
2013-10-04 11:00:00,66.6,54.5,30.00,NNW,342,0.0,1.0,65,0.00,,---,-99.99,VWS V14.01,2013-10-04 15:00:00,
2013-10-04 11:04:00,66.6,54.5,30.00,NNW,342,0.0,0.0,65,0.00,,---,0.00,VWS V14.01,2013-10-04 15:04:00,
2013-10-04 11:09:00,67.3,55.2,30.00,NNW,343,0.0,0.0,65,0.00,,---,0.00,VWS V14.01,2013-10-04 15:09:00,
2013-10-04 11:14:00,67.8,55.6,30.00,North,352,0.0,0.0,65,0.00,,---,0.00,VWS V14.01,2013-10-04 15:14:00,
2013-10-04 11:17:00,67.8,54.3,30.00,North,352,0.0,0.0,62,0.00,,---,0.00,VWS V14.01,2013-10-04 15:17:00,
2013-10-04 11:22:00,67.8,54.3,30.00,North,350,0.0,0.0,62,0.00,,---,0.00,VWS V14.01,2013-10-04 15:22:00,
2013-10-04 11:27:00,67.8,54.3,30.00,NW,304,0.0,0.0,62,0.00,,---,0.00,VWS V14.01,2013-10-04 15:27:00,
2013-10-04 11:32:00,67.1,53.7,29.99,NW,304,0.0,0.0,62,0.00,,---,0.00,VWS V14.01,2013-10-04 15:32:00,
2013-10-04 11:37:00,66.8,53.4,29.99,NW,304,0.0,0.0,62,0.00,,---,0.00,VWS V14.01,2013-10-04 15:37:00,
2013-10-04 11:42:00,66.8,53.4,29.99,NW,305,0.0,0.0,62,0.00,,---,0.00,VWS V14.01,2013-10-04 15:42:00,
2013-10-04 11:47:00,66.9,53.0,30.00,NW,305,0.0,0.0,61,0.00,,---,0.00,VWS V14.01,2013-10-04 15:47:00,
2013-10-04 11:53:00,66.9,53.0,30.00,NW,305,0.0,0.0,61,0.00,,---,0.00,VWS V14.01,2013-10-04 15:53:00,
2013-10-04 11:58:00,66.8,52.9,30.00,NW,305,0.0,0.0,61,0.00,,---,0.00,VWS V14.01,2013-10-04 15:58:00,
2013-10-04 12:00:00,66.8,52.9,29.99,NW,304,0.0,0.0,61,0.00,,---,-99.99,VWS V14.01,2013-10-04 16:00:00,
2013-10-04 12:03:00,66.8,52.5,29.99,NW,304,0.0,0.0,60,0.00,,---,0.00,VWS V14.01,2013-10-04 16:03:00,
2013-10-04 12:08:00,66.8,52.5,29.99,NW,304,0.0,0.0,60,0.00,,---,0.00,VWS V14.01,2013-10-04 16:08:00,
2013-10-04 12:13:00,66.8,52.9,29.99,NW,304,0.0,0.0,61,0.00,,---,0.00,VWS V14.01,2013-10-04 16:13:00,
2013-10-04 12:18:00,66.8,52.9,29.98,NW,304,0.0,0.0,61,0.00,,---,0.00,VWS V14.01,2013-10-04 16:18:00,
2013-10-04 12:23:00,66.9,53.0,29.98,WNW,301,0.0,0.0,61,0.00,,---,0.00,VWS V14.01,2013-10-04 16:23:00,
2013-10-04 12:28:00,66.9,53.0,29.98,WNW,298,0.0,0.0,61,0.00,,---,0.00,VWS V14.01,2013-10-04 16:28:00,
2013-10-04 12:33:00,67.4,53.5,29.98,WNW,291,0.0,0.0,61,0.00,,---,0.00,VWS V14.01,2013-10-04 16:33:00,
2013-10-04 12:38:00,67.8,53.9,29.98,WNW,294,0.0,0.0,61,0.00,,---,0.00,VWS V14.01,2013-10-04 16:38:00,
2013-10-04 12:43:00,68.3,54.3,29.98,WNW,298,0.0,0.0,61,0.00,,---,0.00,VWS V14.01,2013-10-04 16:43:00,
2013-10-04 12:48:00,68.6,54.6,29.98,WNW,301,0.0,0.0,61,0.00,,---,0.00,VWS V14.01,2013-10-04 16:48:00,
2013-10-04 12:53:00,69.1,55.1,29.98,WNW,301,0.0,0.0,61,0.00,,---,0.00,VWS V14.01,2013-10-04 16:53:00,
2013-10-04 12:58:00,69.3,55.3,29.98,NW,322,0.0,0.0,61,0.00,,---,0.00,VWS V14.01,2013-10-04 16:58:00,
2013-10-04 13:00:00,69.3,55.3,29.96,NW,322,0.0,0.0,61,0.00,,---,-99.99,VWS V14.01,2013-10-04 17:00:00,
2013-10-04 13:03:00,69.9,55.8,29.96,NW,322,0.0,0.0,61,0.00,,---,0.00,VWS V14.01,2013-10-04 17:03:00,
2013-10-04 13:08:00,70.3,56.2,29.96,NW,322,0.0,0.0,61,0.00,,---,0.00,VWS V14.01,2013-10-04 17:08:00,
2013-10-04 13:13:00,70.3,56.2,29.96,North,0,0.0,0.0,61,0.00,,---,0.00,VWS V14.01,2013-10-04 17:13:00,
2013-10-04 13:18:00,70.3,56.2,29.97,North,0,0.0,0.0,61,0.00,,---,0.00,VWS V14.01,2013-10-04 17:18:00,
2013-10-04 13:23:00,69.3,48.8,29.97,WNW,296,0.0,0.0,48,0.00,,---,0.00,VWS V14.01,2013-10-04 17:23:00,
2013-10-04 13:28:00,69.1,49.7,29.97,WNW,296,0.0,0.0,50,0.00,,---,0.00,VWS V14.01,2013-10-04 17:28:00,
2013-10-04 13:33:00,69.1,49.7,29.96,WNW,295,0.0,0.0,50,0.00,,---,0.00,VWS V14.01,2013-10-04 17:33:00,
2013-10-04 14:00:00,69.9,51.5,29.96,North,359,0.0,1.0,52,0.00,,---,-99.99,VWS V14.01,2013-10-04 18:00:00,
2013-10-04 14:03:00,69.8,51.4,29.96,North,4,0.0,0.0,52,0.00,,---,0.00,VWS V14.01,2013-10-04 18:03:00,
2013-10-04 14:08:00,69.6,52.2,29.96,NNE,14,0.0,1.0,54,0.00,,---,0.00,VWS V14.01,2013-10-04 18:08:00,
2013-10-04 14:13:00,69.4,52.0,29.96,NNE,14,0.0,1.0,54,0.00,,---,0.00,VWS V14.01,2013-10-04 18:13:00,
2013-10-04 14:18:00,68.9,51.6,29.96,NNE,14,0.0,1.0,54,0.00,,---,0.00,VWS V14.01,2013-10-04 18:18:00,
2013-10-04 14:23:00,68.9,51.1,29.96,North,11,0.0,1.0,53,0.00,,---,0.00,VWS V14.01,2013-10-04 18:23:00,
2013-10-04 14:29:00,67.6,49.9,29.96,North,11,0.0,1.0,53,0.00,,---,0.00,VWS V14.01,2013-10-04 18:29:00,
2013-10-04 14:34:00,67.6,49.9,29.96,North,11,0.0,1.0,53,0.00,,---,0.00,VWS V14.01,2013-10-04 18:34:00,
2013-10-04 14:39:00,67.1,49.4,29.96,North,11,0.0,1.0,53,0.00,,---,0.00,VWS V14.01,2013-10-04 18:39:00,
2013-10-04 14:44:00,66.9,49.2,29.95,North,11,0.0,1.0,53,0.00,,---,0.00,VWS V14.01,2013-10-04 18:44:00,
2013-10-04 14:49:00,66.9,49.2,29.95,North,11,0.0,1.0,53,0.00,,---,0.00,VWS V14.01,2013-10-04 18:49:00,
2013-10-04 14:54:00,66.6,49.0,29.95,North,11,0.0,1.0,53,0.00,,---,0.00,VWS V14.01,2013-10-04 18:54:00,
2013-10-04 14:59:00,66.3,51.6,29.95,North,11,0.0,1.0,59,0.00,,---,0.00,VWS V14.01,2013-10-04 18:59:00,
2013-10-04 15:00:00,66.3,51.6,29.95,North,11,0.0,1.0,59,0.00,,---,-99.99,VWS V14.01,2013-10-04 19:00:00,
2013-10-04 15:04:00,66.3,51.6,29.95,North,11,0.0,0.0,59,0.00,,---,0.00,VWS V14.01,2013-10-04 19:04:00,
2013-10-04 15:09:00,66.3,52.9,29.95,North,11,0.0,0.0,62,0.00,,---,0.00,VWS V14.01,2013-10-04 19:09:00,
2013-10-04 15:14:00,66.4,53.0,29.95,North,11,0.0,0.0,62,0.00,,---,0.00,VWS V14.01,2013-10-04 19:14:00,
2013-10-04 15:19:00,66.4,53.0,29.95,North,11,0.0,0.0,62,0.00,,---,0.00,VWS V14.01,2013-10-04 19:19:00,
2013-10-04 15:24:00,66.4,53.0,29.95,North,11,0.0,0.0,62,0.00,,---,0.00,VWS V14.01,2013-10-04 19:24:00,
2013-10-04 15:29:00,66.4,51.7,29.95,North,11,0.0,0.0,59,0.00,,---,0.00,VWS V14.01,2013-10-04 19:29:00,
2013-10-04 15:35:00,65.5,50.8,29.95,North,11,0.0,0.0,59,0.00,,---,0.00,VWS V14.01,2013-10-04 19:35:00,
2013-10-04 15:40:00,65.6,50.9,29.95,North,11,0.0,0.0,59,0.00,,---,0.00,VWS V14.01,2013-10-04 19:40:00,
2013-10-04 15:45:00,65.6,50.9,29.95,North,11,0.0,0.0,59,0.00,,---,0.00,VWS V14.01,2013-10-04 19:45:00,
2013-10-04 15:50:00,65.6,50.9,29.95,North,11,0.0,0.0,59,0.00,,---,0.00,VWS V14.01,2013-10-04 19:50:00,
2013-10-04 15:55:00,66.8,52.9,29.95,North,11,0.0,0.0,61,0.00,,---,0.00,VWS V14.01,2013-10-04 19:55:00,
2013-10-04 16:00:00,66.8,52.9,29.95,North,11,0.0,0.0,61,0.00,,---,0.00,VWS V14.01,2013-10-04 20:00:00,
2013-10-04 16:05:00,67.8,53.9,29.95,North,11,0.0,0.0,61,0.00,,---,0.00,VWS V14.01,2013-10-04 20:05:00,
2013-10-04 16:10:00,67.8,53.9,29.95,WSW,258,3.0,3.0,61,0.00,,---,0.00,VWS V14.01,2013-10-04 20:10:00,
2013-10-04 16:15:00,66.4,52.6,29.95,WSW,257,0.0,3.0,61,0.00,,---,0.00,VWS V14.01,2013-10-04 20:15:00,
2013-10-04 16:20:00,66.4,52.6,29.95,WSW,256,2.0,3.0,61,0.00,,---,0.00,VWS V14.01,2013-10-04 20:20:00,
2013-10-04 16:25:00,65.5,50.3,29.95,WSW,256,3.0,3.0,58,0.00,,---,0.00,VWS V14.01,2013-10-04 20:25:00,
2013-10-04 16:30:00,64.8,49.7,29.96,WSW,256,2.0,3.0,58,0.00,,---,0.00,VWS V14.01,2013-10-04 20:30:00,
2013-10-04 16:35:00,64.8,49.7,29.96,WSW,256,3.0,3.0,58,0.00,,---,0.00,VWS V14.01,2013-10-04 20:35:00,
2013-10-04 16:40:00,64.8,49.7,29.96,WSW,251,3.0,3.0,58,0.00,,---,0.00,VWS V14.01,2013-10-04 20:40:00,
2013-10-04 16:45:00,64.8,49.7,29.96,WSW,253,3.0,6.0,58,0.00,,---,0.00,VWS V14.01,2013-10-04 20:45:00,
2013-10-04 16:50:00,63.5,48.5,29.96,WSW,251,5.0,6.0,58,0.00,,---,0.00,VWS V14.01,2013-10-04 20:50:00,
2013-10-04 16:55:00,63.5,48.5,29.96,WSW,251,5.0,6.0,58,0.00,,---,0.00,VWS V14.01,2013-10-04 20:55:00,
2013-10-04 17:00:00,63.2,48.2,29.95,WSW,251,2.0,3.0,58,0.00,,---,0.00,VWS V14.01,2013-10-04 21:00:00,
2013-10-04 17:05:00,63.1,48.1,29.95,WSW,251,3.0,4.0,58,0.00,,---,0.00,VWS V14.01,2013-10-04 21:05:00,
2013-10-04 17:10:00,62.9,47.9,29.95,WSW,251,3.0,4.0,58,0.00,,---,0.00,VWS V14.01,2013-10-04 21:10:00,
2013-10-04 17:15:00,62.7,47.7,29.96,WSW,251,1.0,4.0,58,0.00,,---,0.00,VWS V14.01,2013-10-04 21:15:00,
2013-10-04 17:20:00,62.7,47.7,29.96,WSW,251,0.0,4.0,58,0.00,,---,0.00,VWS V14.01,2013-10-04 21:20:00,
2013-10-04 17:25:00,62.7,47.7,29.96,WSW,251,4.0,5.0,58,0.00,,---,0.00,VWS V14.01,2013-10-04 21:25:00,
2013-10-04 17:30:00,62.7,47.7,29.95,WSW,250,5.0,5.0,58,0.00,,---,0.00,VWS V14.01,2013-10-04 21:30:00,
2013-10-04 17:35:00,62.7,47.7,29.95,SW,236,4.0,5.0,58,0.00,,---,0.00,VWS V14.01,2013-10-04 21:35:00,
2013-10-04 17:40:00,62.3,47.3,29.95,SW,236,3.0,5.0,58,0.00,,---,0.00,VWS V14.01,2013-10-04 21:40:00,
2013-10-04 17:45:00,61.8,46.9,29.96,SW,236,0.0,5.0,58,0.00,,---,0.00,VWS V14.01,2013-10-04 21:45:00,
2013-10-04 17:50:00,61.8,46.9,29.96,SW,236,0.0,5.0,58,0.00,,---,0.00,VWS V14.01,2013-10-04 21:50:00,
2013-10-04 17:56:00,61.8,46.9,29.96,SW,236,3.0,5.0,58,0.00,,---,0.00,VWS V14.01,2013-10-04 21:56:00,
2013-10-04 18:00:00,61.8,46.9,29.96,SW,236,0.0,5.0,58,0.00,,---,-99.99,VWS V14.01,2013-10-04 22:00:00,
2013-10-04 18:01:00,61.8,46.9,29.96,SW,236,0.0,0.0,58,0.00,,---,0.00,VWS V14.01,2013-10-04 22:01:00,
2013-10-04 18:06:00,60.9,51.1,29.96,SW,236,0.0,1.0,70,0.00,,---,0.00,VWS V14.01,2013-10-04 22:06:00,
2013-10-04 18:11:00,60.5,51.1,29.96,SW,236,0.0,1.0,71,0.00,,---,0.00,VWS V14.01,2013-10-04 22:11:00,
2013-10-04 18:16:00,60.2,50.0,29.97,SW,236,0.0,1.0,69,0.00,,---,0.00,VWS V14.01,2013-10-04 22:16:00,
2013-10-04 18:21:00,60.1,50.3,29.97,SW,236,0.0,1.0,70,0.00,,---,0.00,VWS V14.01,2013-10-04 22:21:00,
2013-10-04 18:26:00,59.9,50.5,29.97,SW,236,0.0,1.0,71,0.00,,---,0.00,VWS V14.01,2013-10-04 22:26:00,
2013-10-04 18:31:00,59.5,50.1,29.97,SW,236,0.0,1.0,71,0.00,,---,0.00,VWS V14.01,2013-10-04 22:31:00,
2013-10-04 18:36:00,59.5,50.5,29.97,SW,234,0.0,1.0,72,0.00,,---,0.00,VWS V14.01,2013-10-04 22:36:00,
2013-10-04 18:41:00,59.5,50.5,29.97,SW,234,0.0,1.0,72,0.00,,---,0.00,VWS V14.01,2013-10-04 22:41:00,
2013-10-04 18:46:00,59.5,50.5,29.97,SW,234,0.0,1.0,72,0.00,,---,0.00,VWS V14.01,2013-10-04 22:46:00,
2013-10-04 18:51:00,58.9,51.4,29.97,SW,234,0.0,1.0,76,0.00,,---,0.00,VWS V14.01,2013-10-04 22:51:00,
2013-10-04 18:56:00,58.7,51.2,29.97,SW,234,0.0,1.0,76,0.00,,---,0.00,VWS V14.01,2013-10-04 22:56:00,
2013-10-04 19:00:00,58.7,51.5,29.98,SW,234,0.0,1.0,77,0.00,,---,-99.99,VWS V14.01,2013-10-04 23:00:00,
2013-10-04 19:01:00,58.4,51.2,29.98,SW,234,0.0,0.0,77,0.00,,---,0.00,VWS V14.01,2013-10-04 23:01:00,
2013-10-04 19:06:00,58.4,51.2,29.98,SW,234,0.0,0.0,77,0.00,,---,0.00,VWS V14.01,2013-10-04 23:06:00,
2013-10-04 19:11:00,58.4,51.2,29.98,SW,234,0.0,0.0,77,0.00,,---,0.00,VWS V14.01,2013-10-04 23:11:00,
2013-10-04 19:16:00,58.4,51.2,29.98,SW,234,0.0,0.0,77,0.00,,---,0.00,VWS V14.01,2013-10-04 23:16:00,
2013-10-04 19:21:00,58.4,51.6,29.98,SW,234,0.0,0.0,78,0.00,,---,0.00,VWS V14.01,2013-10-04 23:21:00,
2013-10-04 19:26:00,58.4,51.9,29.98,SW,234,0.0,0.0,79,0.00,,---,0.00,VWS V14.01,2013-10-04 23:26:00,
2013-10-04 19:31:00,57.8,51.3,29.98,SW,234,0.0,0.0,79,0.00,,---,0.00,VWS V14.01,2013-10-04 23:31:00,
2013-10-04 19:36:00,57.8,52.0,29.98,SW,234,0.0,0.0,81,0.00,,---,0.00,VWS V14.01,2013-10-04 23:36:00,
2013-10-04 19:41:00,57.6,51.8,29.98,SW,234,0.0,0.0,81,0.00,,---,0.00,VWS V14.01,2013-10-04 23:41:00,
2013-10-04 19:46:00,57.6,51.8,29.98,SW,234,0.0,0.0,81,0.00,,---,0.00,VWS V14.01,2013-10-04 23:46:00,
2013-10-04 19:51:00,57.6,51.8,29.98,SW,234,0.0,0.0,81,0.00,,---,0.00,VWS V14.01,2013-10-04 23:51:00,
2013-10-04 19:56:00,57.6,51.8,29.98,SW,234,0.0,0.0,81,0.00,,---,0.00,VWS V14.01,2013-10-04 23:56:00,
2013-10-04 20:00:00,57.6,51.8,29.99,SW,234,0.0,0.0,81,0.00,,---,-99.99,VWS V14.01,2013-10-05 00:00:00,
2013-10-04 20:01:00,57.6,51.8,29.99,SW,234,0.0,0.0,81,0.00,,---,0.00,VWS V14.01,2013-10-05 00:01:00,
2013-10-04 20:06:00,57.6,51.8,29.99,SW,234,0.0,0.0,81,0.00,,---,0.00,VWS V14.01,2013-10-05 00:06:00,
2013-10-04 20:11:00,57.6,51.8,29.99,SW,234,0.0,0.0,81,0.00,,---,0.00,VWS V14.01,2013-10-05 00:11:00,
2013-10-04 20:16:00,57.5,51.7,29.98,SW,234,0.0,0.0,81,0.00,,---,0.00,VWS V14.01,2013-10-05 00:16:00,
2013-10-04 20:21:00,57.3,51.5,29.98,SW,234,0.0,0.0,81,0.00,,---,0.00,VWS V14.01,2013-10-05 00:21:00,
2013-10-04 20:26:00,57.3,51.5,29.98,SW,234,0.0,0.0,81,0.00,,---,0.00,VWS V14.01,2013-10-05 00:26:00,
2013-10-04 20:31:00,57.3,51.5,29.98,SW,234,0.0,0.0,81,0.00,,---,0.00,VWS V14.01,2013-10-05 00:31:00,
2013-10-04 20:36:00,57.3,51.5,29.98,SW,234,0.0,0.0,81,0.00,,---,0.00,VWS V14.01,2013-10-05 00:36:00,
2013-10-04 20:41:00,57.5,51.7,29.98,SW,234,0.0,0.0,81,0.00,,---,0.00,VWS V14.01,2013-10-05 00:41:00,
2013-10-04 20:46:00,58.0,52.2,29.99,SW,234,0.0,0.0,81,0.00,,---,0.00,VWS V14.01,2013-10-05 00:46:00,
2013-10-04 20:51:00,58.1,52.3,29.99,SW,234,0.0,0.0,81,0.00,,---,0.00,VWS V14.01,2013-10-05 00:51:00,
2013-10-04 20:56:00,58.1,52.3,29.99,SW,234,0.0,0.0,81,0.00,,---,0.00,VWS V14.01,2013-10-05 00:56:00,
2013-10-04 21:00:00,58.1,52.3,29.99,SW,234,0.0,0.0,81,0.00,,---,-99.99,VWS V14.01,2013-10-05 01:00:00,
2013-10-04 21:01:00,58.1,52.3,29.99,SW,234,0.0,0.0,81,0.00,,---,0.00,VWS V14.01,2013-10-05 01:01:00,
2013-10-04 21:06:00,58.0,52.2,29.99,SW,234,0.0,0.0,81,0.00,,---,0.00,VWS V14.01,2013-10-05 01:06:00,
2013-10-04 21:11:00,58.0,52.2,29.99,SW,234,0.0,0.0,81,0.00,,---,0.00,VWS V14.01,2013-10-05 01:11:00,
2013-10-04 21:17:00,58.0,52.2,30.00,SW,234,0.0,0.0,81,0.00,,---,0.00,VWS V14.01,2013-10-05 01:17:00,
2013-10-04 21:22:00,57.8,52.0,30.00,SW,234,0.0,0.0,81,0.00,,---,0.00,VWS V14.01,2013-10-05 01:22:00,
2013-10-04 21:27:00,57.8,52.0,30.00,SW,234,0.0,0.0,81,0.00,,---,0.00,VWS V14.01,2013-10-05 01:27:00,
2013-10-04 21:32:00,57.6,51.8,30.00,SW,234,0.0,0.0,81,0.00,,---,0.00,VWS V14.01,2013-10-05 01:32:00,
2013-10-04 21:37:00,57.6,51.8,30.00,SW,234,0.0,0.0,81,0.00,,---,0.00,VWS V14.01,2013-10-05 01:37:00,
2013-10-04 21:42:00,57.8,52.0,30.00,SW,234,0.0,0.0,81,0.00,,---,0.00,VWS V14.01,2013-10-05 01:42:00,
2013-10-04 21:47:00,58.0,52.2,30.00,SW,234,0.0,0.0,81,0.00,,---,0.00,VWS V14.01,2013-10-05 01:47:00,
2013-10-04 21:52:00,58.0,52.2,30.00,SW,234,0.0,0.0,81,0.00,,---,0.00,VWS V14.01,2013-10-05 01:52:00,
2013-10-04 21:57:00,58.0,52.2,30.00,SW,234,0.0,0.0,81,0.00,,---,0.00,VWS V14.01,2013-10-05 01:57:00,
2013-10-04 22:00:00,58.0,52.2,30.00,SW,234,0.0,0.0,81,0.00,,---,-99.99,VWS V14.01,2013-10-05 02:00:00,
2013-10-04 22:02:00,58.0,52.2,30.00,SW,234,0.0,0.0,81,0.00,,---,0.00,VWS V14.01,2013-10-05 02:02:00,
2013-10-04 22:07:00,58.0,55.1,30.00,SW,234,0.0,0.0,90,0.00,,---,0.00,VWS V14.01,2013-10-05 02:07:00,
2013-10-04 22:12:00,58.0,55.1,30.00,SW,234,0.0,0.0,90,0.00,,---,0.00,VWS V14.01,2013-10-05 02:12:00,
2013-10-04 22:17:00,57.5,54.6,30.01,SW,234,0.0,0.0,90,0.00,,---,0.00,VWS V14.01,2013-10-05 02:17:00,
2013-10-04 22:22:00,57.5,54.6,30.01,SW,234,0.0,0.0,90,0.00,,---,0.00,VWS V14.01,2013-10-05 02:22:00,
2013-10-04 22:27:00,57.5,54.6,30.01,SW,234,0.0,0.0,90,0.00,,---,0.00,VWS V14.01,2013-10-05 02:27:00,
2013-10-04 22:32:00,57.5,54.6,30.01,SW,234,0.0,0.0,90,0.00,,---,0.00,VWS V14.01,2013-10-05 02:32:00,
2013-10-04 22:37:00,57.5,54.6,30.01,SW,234,0.0,0.0,90,0.00,,---,0.00,VWS V14.01,2013-10-05 02:37:00,
2013-10-04 22:42:00,57.5,54.6,30.01,SW,234,0.0,0.0,90,0.00,,---,0.00,VWS V14.01,2013-10-05 02:42:00,
2013-10-04 22:47:00,57.5,51.0,30.01,SW,234,0.0,0.0,79,0.00,,---,0.00,VWS V14.01,2013-10-05 02:47:00,
2013-10-04 22:52:00,57.5,51.0,30.01,SW,234,0.0,0.0,79,0.00,,---,0.00,VWS V14.01,2013-10-05 02:52:00,
2013-10-04 22:57:00,57.3,50.8,30.01,SW,234,0.0,0.0,79,0.00,,---,0.00,VWS V14.01,2013-10-05 02:57:00,
2013-10-04 23:00:00,57.3,50.8,30.01,SW,234,0.0,0.0,79,0.00,,---,-99.99,VWS V14.01,2013-10-05 03:00:00,
2013-10-04 23:02:00,57.3,50.8,30.01,SW,234,0.0,0.0,79,0.00,,---,0.00,VWS V14.01,2013-10-05 03:02:00,
2013-10-04 23:07:00,57.3,50.8,30.01,NE,40,0.0,0.0,79,0.00,,---,0.00,VWS V14.01,2013-10-05 03:07:00,
2013-10-04 23:12:00,57.0,50.6,30.01,NNE,30,0.0,0.0,79,0.00,,---,0.00,VWS V14.01,2013-10-05 03:12:00,
2013-10-04 23:17:00,57.2,50.8,30.01,NNE,30,0.0,0.0,79,0.00,,---,0.00,VWS V14.01,2013-10-05 03:17:00,
2013-10-04 23:22:00,57.5,45.0,30.01,NNE,30,0.0,0.0,63,0.00,,---,0.00,VWS V14.01,2013-10-05 03:22:00,
2013-10-04 23:27:00,57.5,45.0,30.01,NNE,30,0.0,0.0,63,0.00,,---,0.00,VWS V14.01,2013-10-05 03:27:00,
2013-10-04 23:33:00,57.5,44.6,30.01,NNE,30,0.0,0.0,62,0.00,,---,0.00,VWS V14.01,2013-10-05 03:33:00,
2013-10-04 23:38:00,57.5,43.7,30.01,NNE,30,0.0,0.0,60,0.00,,---,0.00,VWS V14.01,2013-10-05 03:38:00,
2013-10-04 23:43:00,57.5,43.3,30.01,NNE,30,0.0,0.0,59,0.00,,---,0.00,VWS V14.01,2013-10-05 03:43:00,
2013-10-04 23:48:00,57.5,43.3,30.01,ENE,61,0.0,0.0,59,0.00,,---,0.00,VWS V14.01,2013-10-05 03:48:00,
2013-10-04 23:53:00,57.6,42.5,30.01,NE,41,0.0,0.0,57,0.00,,---,0.00,VWS V14.01,2013-10-05 03:53:00,
2013-10-04 23:58:00,57.6,42.5,30.01,NNE,21,0.0,0.0,57,0.00,,---,0.00,VWS V14.01,2013-10-05 03:58:00,